When you browse on this site, cookies collect data to enhance your experience and personalize the content and advertising you see.
Visit our Privacy Policy to learn more. By continuing to use the site, you agree to this use of cookies and data.
  • In Austria
  • List of Countries
  • For 7 days
  • Water Temperature
  • Satellite Maps
  • Weather Map
  • News
  • Weather Widgets
  • user-avatar
    Login

    Hourly Weather Miyadzaki

    Today, 25 April, Thursday

    Time Temperature Precipitation Wind Pressure Humidity
    00:00 +21°C° 0.6 mm 2 mps 747 mmHg 97%
    01:00 +21°C° 1.2 mm 2 mps 747 mmHg 97%
    02:00 +21°C° 1.2 mm 2 mps 746 mmHg 97%
    03:00 +22°C° 0 mm 1 mps 746 mmHg 98%
    04:00 +22°C° 1.1 mm 1 mps 746 mmHg 98%
    05:00 +22°C° 1.1 mm 1 mps 745 mmHg 98%
    06:00 +22°C° 1.1 mm 1 mps 745 mmHg 98%
    07:00 +23°C° 0.1 mm 1 mps 745 mmHg 92%
    08:00 +25°C° 0.1 mm 1 mps 746 mmHg 87%
    09:00 +26°C° 0 mm 1 mps 746 mmHg 80%
    10:00 +27°C° 0.1 mm 1 mps 746 mmHg 77%
    11:00 +27°C° 0.1 mm 1 mps 746 mmHg 74%
    12:00 +28°C° 0.1 mm 2 mps 746 mmHg 71%
    13:00 +28°C° 0.1 mm 2 mps 746 mmHg 67%
    14:00 +28°C° 0.1 mm 3 mps 746 mmHg 64%
    15:00 +28°C° 0 mm 3 mps 746 mmHg 62%
    16:00 +27°C° 0 mm 3 mps 746 mmHg 66%
    17:00 +26°C° 0 mm 4 mps 746 mmHg 70%
    18:00 +25°C° 0 mm 4 mps 746 mmHg 74%
    19:00 +22°C° 0 mm 4 mps 747 mmHg 78%
    20:00 +21°C° 0 mm 4 mps 747 mmHg 81%
    21:00 +20°C° 0 mm 4 mps 747 mmHg 86%
    22:00 +20°C° 0 mm 4 mps 747 mmHg 86%
    23:00 +20°C° 0 mm 3 mps 747 mmHg 86%

    Tomorrow, 26 April, Friday

    Time Temperature Precipitation Wind Pressure Humidity
    00:00 +20°C° 0 mm 3 mps 747 mmHg 87%
    01:00 +20°C° 0 mm 4 mps 747 mmHg 87%
    02:00 +19°C° 0 mm 4 mps 747 mmHg 86%
    03:00 +19°C° 0 mm 4 mps 746 mmHg 86%
    04:00 +19°C° 0 mm 4 mps 747 mmHg 87%
    05:00 +19°C° 0 mm 4 mps 747 mmHg 88%
    06:00 +19°C° 0 mm 3 mps 747 mmHg 88%
    07:00 +20°C° 0 mm 4 mps 747 mmHg 83%
    08:00 +21°C° 0 mm 4 mps 748 mmHg 77%
    09:00 +22°C° 0 mm 4 mps 748 mmHg 72%
    10:00 +23°C° 0 mm 4 mps 748 mmHg 68%
    11:00 +23°C° 0 mm 5 mps 748 mmHg 65%
    12:00 +25°C° 0 mm 5 mps 748 mmHg 61%
    13:00 +25°C° 0 mm 5 mps 748 mmHg 62%
    14:00 +23°C° 0 mm 6 mps 748 mmHg 63%
    15:00 +23°C° 0 mm 6 mps 748 mmHg 64%
    16:00 +22°C° 0 mm 6 mps 748 mmHg 66%
    17:00 +20°C° 0 mm 6 mps 748 mmHg 68%
    18:00 +19°C° 0 mm 5 mps 748 mmHg 70%
    19:00 +16°C° 0 mm 5 mps 749 mmHg 73%
    20:00 +15°C° 0 mm 5 mps 749 mmHg 76%
    21:00 +13°C° 0 mm 4 mps 749 mmHg 79%
    22:00 +13°C° 0 mm 4 mps 749 mmHg 80%
    23:00 +13°C° 0 mm 4 mps 749 mmHg 81%

    Day after tomorrow, 27 April, Saturday

    Time Temperature Precipitation Wind Pressure Humidity
    00:00 +12°C° 0 mm 4 mps 750 mmHg 82%
    01:00 +12°C° 0 mm 4 mps 750 mmHg 80%
    02:00 +13°C° 0 mm 5 mps 750 mmHg 78%
    03:00 +13°C° 0 mm 5 mps 750 mmHg 76%
    04:00 +12°C° 0 mm 4 mps 750 mmHg 79%
    05:00 +12°C° 0 mm 4 mps 751 mmHg 82%
    06:00 +11°C° 0 mm 3 mps 752 mmHg 85%
    07:00 +13°C° 0 mm 3 mps 752 mmHg 74%
    08:00 +17°C° 0 mm 3 mps 753 mmHg 63%
    09:00 +19°C° 0 mm 3 mps 753 mmHg 53%
    10:00 +20°C° 0 mm 2 mps 754 mmHg 47%
    11:00 +23°C° 0 mm 2 mps 754 mmHg 41%
    12:00 +25°C° 0 mm 2 mps 754 mmHg 35%
    13:00 +24°C° 0 mm 3 mps 754 mmHg 37%
    14:00 +24°C° 0 mm 3 mps 754 mmHg 39%
    15:00 +23°C° 0 mm 4 mps 754 mmHg 41%
    16:00 +21°C° 0 mm 4 mps 754 mmHg 47%
    17:00 +19°C° 0 mm 4 mps 754 mmHg 53%
    18:00 +17°C° 0 mm 5 mps 754 mmHg 60%
    19:00 +17°C° 0 mm 4 mps 755 mmHg 60%
    20:00 +15°C° 0 mm 4 mps 756 mmHg 60%
    21:00 +14°C° 0 mm 4 mps 756 mmHg 60%
    22:00 +13°C° 0 mm 4 mps 756 mmHg 60%
    23:00 +13°C° 0 mm 4 mps 756 mmHg 60%

    28 April, Sunday

    Time Temperature Precipitation Wind Pressure Humidity
    00:00 +13°C° 0 mm 4 mps 757 mmHg 59%
    01:00 +12°C° 0 mm 4 mps 756 mmHg 60%
    02:00 +12°C° 0 mm 4 mps 756 mmHg 62%
    03:00 +12°C° 0 mm 3 mps 756 mmHg 63%
    04:00 +12°C° 0 mm 3 mps 756 mmHg 64%
    05:00 +12°C° 0 mm 3 mps 757 mmHg 65%
    06:00 +12°C° 0 mm 3 mps 757 mmHg 66%
    07:00 +13°C° 0 mm 3 mps 757 mmHg 63%
    08:00 +14°C° 0 mm 3 mps 757 mmHg 60%
    09:00 +16°C° 0 mm 3 mps 757 mmHg 57%
    10:00 +18°C° 0 mm 3 mps 757 mmHg 53%
    11:00 +19°C° 0 mm 3 mps 757 mmHg 50%
    12:00 +21°C° 0 mm 3 mps 757 mmHg 47%
    13:00 +21°C° 0 mm 3 mps 757 mmHg 48%
    14:00 +21°C° 0 mm 3 mps 756 mmHg 50%
    15:00 +21°C° 0 mm 3 mps 756 mmHg 51%
    16:00 +20°C° 0 mm 3 mps 756 mmHg 58%
    17:00 +19°C° 0 mm 3 mps 756 mmHg 65%
    18:00 +18°C° 0 mm 2 mps 756 mmHg 72%
    19:00 +18°C° 0.1 mm 2 mps 756 mmHg 75%
    20:00 +17°C° 0.1 mm 2 mps 757 mmHg 78%
    21:00 +17°C° 0.1 mm 2 mps 757 mmHg 81%
    22:00 +17°C° 0.2 mm 3 mps 757 mmHg 84%
    23:00 +17°C° 0.2 mm 3 mps 756 mmHg 87%

    29 April, Monday

    Time Temperature Precipitation Wind Pressure Humidity
    00:00 +17°C° 0.2 mm 3 mps 756 mmHg 90%
    01:00 +17°C° 0.2 mm 3 mps 756 mmHg 90%
    02:00 +17°C° 0.2 mm 3 mps 755 mmHg 91%
    03:00 +17°C° 0.2 mm 3 mps 755 mmHg 91%
    04:00 +17°C° 0.3 mm 4 mps 755 mmHg 91%
    05:00 +18°C° 0.3 mm 4 mps 755 mmHg 91%
    06:00 +18°C° 0.3 mm 4 mps 755 mmHg 90%
    07:00 +18°C° 0.1 mm 4 mps 755 mmHg 88%
    08:00 +19°C° 0.1 mm 4 mps 755 mmHg 85%
    09:00 +19°C° 0.1 mm 5 mps 755 mmHg 83%
    10:00 +20°C° 0 mm 5 mps 754 mmHg 80%
    11:00 +20°C° 0 mm 5 mps 754 mmHg 77%
    12:00 +20°C° 0 mm 6 mps 754 mmHg 74%
    13:00 +21°C° 0.2 mm 6 mps 753 mmHg 75%
    14:00 +21°C° 0.2 mm 6 mps 752 mmHg 75%
    15:00 +22°C° 0.2 mm 6 mps 752 mmHg 75%
    16:00 +21°C° 1.6 mm 6 mps 751 mmHg 82%
    17:00 +20°C° 1.6 mm 6 mps 751 mmHg 88%
    18:00 +19°C° 1.6 mm 6 mps 750 mmHg 95%
    19:00 +20°C° 2.3 mm 6 mps 750 mmHg 95%
    20:00 +20°C° 2.3 mm 6 mps 750 mmHg 96%
    21:00 +20°C° 2.3 mm 7 mps 749 mmHg 96%
    22:00 +21°C° 2.9 mm 7 mps 749 mmHg 96%
    23:00 +21°C° 2.9 mm 6 mps 748 mmHg 97%

    30 April, Tuesday

    Time Temperature Precipitation Wind Pressure Humidity
    00:00 +22°C° 2.9 mm 6 mps 747 mmHg 97%
    01:00 +22°C° 0.5 mm 6 mps 747 mmHg 97%
    02:00 +22°C° 0.5 mm 5 mps 746 mmHg 97%
    03:00 +22°C° 0.5 mm 5 mps 746 mmHg 96%
    04:00 +22°C° 0.4 mm 5 mps 746 mmHg 96%
    05:00 +21°C° 0.4 mm 5 mps 746 mmHg 96%
    06:00 +21°C° 0.4 mm 4 mps 746 mmHg 95%
    07:00 +21°C° 0 mm 4 mps 747 mmHg 93%
    08:00 +21°C° 0 mm 4 mps 747 mmHg 91%
    09:00 +21°C° 0 mm 4 mps 747 mmHg 89%
    10:00 +22°C° 0 mm 3 mps 747 mmHg 85%
    11:00 +22°C° 0 mm 3 mps 747 mmHg 80%
    12:00 +24°C° 0 mm 3 mps 747 mmHg 76%
    13:00 +24°C° 0.1 mm 3 mps 747 mmHg 76%
    14:00 +24°C° 0.1 mm 3 mps 747 mmHg 76%
    15:00 +24°C° 0.1 mm 2 mps 746 mmHg 76%
    16:00 +22°C° 0.2 mm 3 mps 747 mmHg 80%
    17:00 +21°C° 0.2 mm 3 mps 747 mmHg 85%
    18:00 +20°C° 0.2 mm 3 mps 747 mmHg 89%
    19:00 +19°C° 0 mm 3 mps 748 mmHg 90%
    20:00 +19°C° 0 mm 3 mps 748 mmHg 91%
    21:00 +19°C° 0 mm 3 mps 748 mmHg 91%
    22:00 +18°C° 0 mm 3 mps 748 mmHg 89%
    23:00 +18°C° 0 mm 3 mps 748 mmHg 87%
    Show more